Torna al catalogo

RADIO 7

AttivoRadioamatorePO
NORAD 13001·PAYLOAD·🇷🇺 Russia

Lanciato Dec 17, 1981 da Plesetsk Cosmodrome

Loading…

Prossimi Passaggi (prossime 24 ore)

TLE

AggiornatoSource: Space-Track

Epoca: Sep 14, 2026, 13:54 UTC

1 13001U 81120E   26257.57974721  .00000022  00000-0  13556-3 0  9998
2 13001  82.9645 334.0875 0024047 181.3433 245.5049 12.08950748974240

Traccia RADIO 7 in tempo reale con AllMySat

Download on the App Store